Hourly Data Report for October 29, 2020

MUSKOKA
ONTARIO
Current Station Operator: NAVCAN

44°58'29.000" N
79°18'12.000" W
281.90 m
6115529
71532
YQA

Download Data

Hourly Data (October 2020)
Hourly Data Report for October 29, 2020
TIME
LST
Temp Definition
°C
Dew Point Definition
°C
Rel Hum Definition
%
Precip. Amount Definition
mm

Wind Dir Definition
10's deg

Wind Spd Definition
km/h
Visibility Definition
km
Stn Press Definition
kPa
Hmdx Definition


Wind Chill Definition


Weather Definition


00:00 3.5 2.5 93 0.0 15 5 16.1 97.82     LegendNANA
01:00 3.3 2.4 94 0.0 18 5 16.1 97.83     LegendNANA
02:00 4.4 2.8 89 0.0 13 5 16.1 97.81     LegendNANA
03:00 4.1 2.6 90 0.0 9 4 16.1 97.74     LegendNANA
04:00 4.0 2.7 91 0.0   0 16.1 97.72     LegendNANA
05:00 4.4 2.8 89 0.0 LegendMM 4 16.1 97.74     LegendNANA
06:00 4.3 3.0 91 0.0 LegendMM 4 16.1 97.75     Rain
07:00 4.0 3.1 94 0.0 3 5 16.1 97.73     LegendNANA
08:00 4.2 3.0 92 0.0   0 16.1 97.76     LegendNANA
09:00 4.6 3.0 89 0.0 LegendMM 5 16.1 97.75     LegendNANA
10:00
11:00
12:00
13:00 2.7 0.6 86 0.0 4 15 16.1 97.74     LegendNANA
14:00 2.2 -0.6 82 0.0 3 13 16.1 97.73     Rain
15:00 1.8 0.3 90 0.0 4 5 16.1 97.75     Rain
16:00 2.0 -0.8 82 0.0 4 8 16.1 97.77     LegendNANA
17:00 1.1 -2.0 80 0.0 3 13 16.1 97.80     LegendNANA
18:00 0.9 -2.7 77 0.0 3 11 16.1 97.91     LegendNANA
19:00 0.7 -3.4 74 0.0 3 11 16.1 97.95     LegendNANA
20:00 0.3 -4.3 71 0.0 3 5 16.1 97.99     LegendNANA
21:00 0.0 -4.8 70 0.0 3 11 16.1 98.01   -4 LegendNANA
22:00 -1.1 -5.8 71 0.0 3 9 16.1 98.05   -4 LegendNANA
23:00 -1.9 -6.9 69 0.0 4 9 16.1 98.06   -5 LegendNANA

Notes on Data Quality.

Legend

  • E = Estimated
  • M = Missing
  • NA = Not Available*
  • [empty] = Indicates an unobserved value
Date modified: